UAE5V KJFK-OMDB

Flight info

Callsign UAE5V
Flight time N/A
Altitude 29000
Route GREKI DCT JUDDS DCT CAM DCT EBONY N633A RIKAL/M084F320 NATS SOVED/N0479F330 DCT LUTOV DCT MAKUX DCT SOSIM L15 MOTOX DCT RUCAC DCT LESDO DCT ETINO DCT DEVDI DCT RIPUS DCT RESIA DCT BELOV DCT LATAN/N0476F350 DCT SALUN N705 MMA P751 DASUM Y234 FYM M872 BDB Y214 RAPMA/N0483F370 DCT KUVSO DCT KATIT DCT PEKEM M628 RIGIL G783 ELUDA/N0476F350 G783 ASPED Q308 KIPOK Q568 IMPED
Aircraft B77W/H-SDE1E2E3FGHIJ2J3J4J5M1RWXY/LB1D1

Departure

Time 2026-05-06 00:05
Airport John F. Kennedy International Airport (KJFK)

Arrival

Time N/A
Airport Dubai International Airport (OMDB)
Time Latitude Longitude Altitude Speed Heading
2026-05-05 23:33 40.64254 -73.77948 13 ft 0 kts 30°
2026-05-05 23:53 40.64234 -73.77963 25 ft 4 kts 30°
2026-05-05 23:53 40.64211 -73.77981 24 ft 4 kts 30°
2026-05-05 23:53 40.64187 -73.77999 25 ft 4 kts 30°
2026-05-05 23:53 40.64176 -73.78007 24 ft 0 kts 30°
2026-05-05 23:54 40.64180 -73.78002 24 ft 2 kts 44°
2026-05-05 23:54 40.64183 -73.77988 25 ft 2 kts 81°
2026-05-05 23:55 40.64178 -73.77974 25 ft 2 kts 122°
2026-05-05 23:55 40.64164 -73.77963 25 ft 4 kts 150°
2026-05-05 23:55 40.64120 -73.77929 21 ft 8 kts 149°
2026-05-05 23:55 40.64067 -73.77896 25 ft 8 kts 168°
2026-05-05 23:56 40.64009 -73.77882 21 ft 8 kts 160°
2026-05-05 23:56 40.63956 -73.77846 24 ft 9 kts 152°
2026-05-05 23:56 40.63905 -73.77806 21 ft 9 kts 148°
2026-05-05 23:56 40.63843 -73.77753 21 ft 11 kts 146°
2026-05-05 23:57 40.63783 -73.77690 25 ft 11 kts 136°
2026-05-05 23:57 40.63706 -73.77666 22 ft 13 kts 177°
2026-05-05 23:57 40.63702 -73.77559 25 ft 20 kts 40°
2026-05-05 23:57 40.63836 -73.77450 28 ft 24 kts 30°
2026-05-05 23:58 40.63978 -73.77340 24 ft 24 kts 31°
2026-05-05 23:58 40.64120 -73.77229 24 ft 24 kts 31°
2026-05-05 23:58 40.64260 -73.77119 23 ft 24 kts 31°
2026-05-05 23:58 40.64403 -73.77011 22 ft 24 kts 23°
2026-05-05 23:59 40.64557 -73.76951 21 ft 20 kts 30°
2026-05-05 23:59 40.64656 -73.76873 26 ft 16 kts 31°
2026-05-05 23:59 40.64752 -73.76798 24 ft 16 kts 31°
2026-05-05 23:59 40.64847 -73.76723 26 ft 16 kts 31°
2026-05-06 00:00 40.64945 -73.76647 20 ft 16 kts 31°
2026-05-06 00:00 40.65030 -73.76580 23 ft 8 kts 30°
2026-05-06 00:00 40.65077 -73.76544 21 ft 8 kts 30°
2026-05-06 00:00 40.65097 -73.76485 20 ft 8 kts 101°
2026-05-06 00:01 40.65089 -73.76460 23 ft 0 kts 117°
2026-05-06 00:02 40.65087 -73.76454 23 ft 2 kts 117°
2026-05-06 00:02 40.65077 -73.76430 21 ft 7 kts 117°
2026-05-06 00:02 40.65029 -73.76371 21 ft 12 kts 172°
2026-05-06 00:02 40.64941 -73.76420 22 ft 12 kts 209°
2026-05-06 00:03 40.64930 -73.76428 20 ft 0 kts 210°
2026-05-06 00:04 40.64915 -73.76440 21 ft 10 kts 210°
2026-05-06 00:04 40.64687 -73.76616 24 ft 76 kts 210°
2026-05-06 00:04 40.63994 -73.77159 26 ft 154 kts 210°
2026-05-06 00:04 40.62924 -73.77968 293 ft 190 kts 210°
2026-05-06 00:05 40.61847 -73.78824 1413 ft 182 kts 211°
2026-05-06 00:05 40.60697 -73.79698 2180 ft 205 kts 211°
2026-05-06 00:05 40.59407 -73.80644 2756 ft 216 kts 211°
2026-05-06 00:06 40.58066 -73.81584 3330 ft 220 kts 211°
2026-05-06 00:06 40.56690 -73.82535 3760 ft 228 kts 212°
2026-05-06 00:06 40.55483 -73.83867 3904 ft 236 kts 241°
2026-05-06 00:06 40.55011 -73.85961 4358 ft 244 kts 263°
2026-05-06 00:07 40.55090 -73.88215 4953 ft 252 kts 278°
2026-05-06 00:07 40.55765 -73.90380 5569 ft 262 kts 300°
2026-05-06 00:07 40.57096 -73.92071 6252 ft 275 kts 323°
2026-05-06 00:07 40.58953 -73.92874 6837 ft 293 kts 351°
2026-05-06 00:08 40.61020 -73.92510 7384 ft 307 kts 13°
2026-05-06 00:08 40.62979 -73.91423 7978 ft 313 kts 21°
2026-05-06 00:08 40.64914 -73.90080 8612 ft 315 kts 24°
2026-05-06 00:08 40.66849 -73.88667 9213 ft 318 kts 25°
2026-05-06 00:09 40.68792 -73.87244 9836 ft 319 kts 25°
2026-05-06 00:09 40.70715 -73.85849 10309 ft 323 kts 24°
2026-05-06 00:09 40.72775 -73.84378 10460 ft 342 kts 24°
2026-05-06 00:09 40.74923 -73.82861 10617 ft 360 kts 24°
2026-05-06 00:10 40.77170 -73.81284 10769 ft 378 kts 24°
2026-05-06 00:10 40.79542 -73.79624 11078 ft 391 kts 24°
2026-05-06 00:10 40.81971 -73.77925 11553 ft 399 kts 24°
2026-05-06 00:10 40.84452 -73.76190 12174 ft 403 kts 24°
2026-05-06 00:11 40.86939 -73.74450 12862 ft 405 kts 24°
2026-05-06 00:11 40.89435 -73.72705 13543 ft 408 kts 24°
2026-05-06 00:11 40.91927 -73.70963 14140 ft 411 kts 24°
2026-05-06 00:11 40.94469 -73.69186 14665 ft 416 kts 24°
2026-05-06 00:12 40.97044 -73.67386 15189 ft 421 kts 24°
2026-05-06 00:12 40.99656 -73.65557 15726 ft 425 kts 25°
2026-05-06 00:12 41.02286 -73.63714 16286 ft 429 kts 25°
2026-05-06 00:12 41.04943 -73.61851 16802 ft 434 kts 25°
2026-05-06 00:13 41.07631 -73.59963 17342 ft 438 kts 25°
2026-05-06 00:13 41.10338 -73.58061 17859 ft 443 kts 25°
2026-05-06 00:13 41.13078 -73.56133 18363 ft 447 kts 25°
2026-05-06 00:13 41.15796 -73.54219 18837 ft 450 kts 25°
2026-05-06 00:14 41.18605 -73.52239 19373 ft 451 kts 25°
2026-05-06 00:14 41.21346 -73.50304 19894 ft 453 kts 25°
2026-05-06 00:14 41.24142 -73.48330 20400 ft 455 kts 25°
2026-05-06 00:14 41.26948 -73.46346 20895 ft 458 kts 25°
2026-05-06 00:15 41.29775 -73.44346 21385 ft 460 kts 25°
2026-05-06 00:15 41.32611 -73.42338 21860 ft 462 kts 25°
2026-05-06 00:15 41.35436 -73.40334 22312 ft 465 kts 25°
2026-05-06 00:15 41.38299 -73.38302 22793 ft 467 kts 25°
2026-05-06 00:16 41.41189 -73.36249 23250 ft 470 kts 25°
2026-05-06 00:16 41.44086 -73.34189 23653 ft 473 kts 25°
2026-05-06 00:16 41.46892 -73.31943 24028 ft 477 kts 32°
2026-05-06 00:16 41.49570 -73.29285 24407 ft 482 kts 37°
2026-05-06 00:17 41.52050 -73.26235 24768 ft 486 kts 43°
2026-05-06 00:17 41.54419 -73.22989 25090 ft 489 kts 43°
2026-05-06 00:17 41.56806 -73.19726 25433 ft 491 kts 43°
2026-05-06 00:17 41.59230 -73.16477 25779 ft 492 kts 41°
2026-05-06 00:18 41.61855 -73.13688 25982 ft 488 kts 25°
2026-05-06 00:18 41.64980 -73.12032 26198 ft 481 kts
2026-05-06 00:18 41.68270 -73.11487 26536 ft 473 kts 354°
2026-05-06 00:18 41.71529 -73.11901 26861 ft 467 kts 347°
2026-05-06 00:19 41.74762 -73.12517 27134 ft 470 kts 347°
2026-05-06 00:19 41.78006 -73.13144 27400 ft 472 kts 347°
2026-05-06 00:19 41.81271 -73.13762 27738 ft 473 kts 347°
2026-05-06 00:19 41.84543 -73.14359 28082 ft 475 kts 347°
2026-05-06 00:20 41.87784 -73.14934 28351 ft 477 kts 348°
2026-05-06 00:20 41.91082 -73.15508 28618 ft 479 kts 348°
2026-05-06 00:20 41.94409 -73.16081 28759 ft 481 kts 348°
2026-05-06 00:21 42.01084 -73.17223 28813 ft 483 kts 348°
2026-05-06 00:21 42.07708 -73.18358 28805 ft 481 kts 348°
2026-05-06 00:22 42.14366 -73.19505 28820 ft 481 kts 348°
2026-05-06 00:22 42.20976 -73.20649 28820 ft 482 kts 348°
2026-05-06 00:23 42.27643 -73.21805 28842 ft 482 kts 348°
2026-05-06 00:23 42.34306 -73.22961 28849 ft 481 kts 348°
2026-05-06 00:24 42.40919 -73.24111 28845 ft 481 kts 348°
2026-05-06 00:24 42.47567 -73.25273 28850 ft 481 kts 348°
2026-05-06 00:25 42.54180 -73.26429 28837 ft 481 kts 348°
2026-05-06 00:25 42.60837 -73.27595 28837 ft 481 kts 347°
2026-05-06 00:26 42.67490 -73.28764 28836 ft 481 kts 347°
2026-05-06 00:26 42.74139 -73.29932 28841 ft 482 kts 347°
2026-05-06 00:27 42.80753 -73.31098 28836 ft 482 kts 347°
2026-05-06 00:27 42.87403 -73.32274 28845 ft 482 kts 347°
2026-05-06 00:28 42.94106 -73.32915 28824 ft 494 kts
2026-05-06 00:28 42.97444 -73.31578 28837 ft 510 kts 21°
2026-05-06 00:28 43.00435 -73.28868 28843 ft 522 kts 39°
2026-05-06 00:28 43.02821 -73.25094 28817 ft 530 kts 57°
2026-05-06 00:29 43.04452 -73.20649 28855 ft 530 kts 64°
2026-05-06 00:29 43.07476 -73.11366 28838 ft 533 kts 64°
2026-05-06 00:30 43.10517 -73.02134 28812 ft 530 kts 63°
2026-05-06 00:30 43.13611 -72.92976 28817 ft 528 kts 63°
2026-05-06 00:31 43.16705 -72.83905 28823 ft 529 kts 63°
2026-05-06 00:31 43.19814 -72.74762 28830 ft 529 kts 63°
2026-05-06 00:32 43.22909 -72.65611 28818 ft 527 kts 63°
2026-05-06 00:32 43.25966 -72.56532 28822 ft 528 kts 63°
2026-05-06 00:33 43.29044 -72.47361 28821 ft 529 kts 63°
2026-05-06 00:33 43.32108 -72.38201 28823 ft 530 kts 63°
2026-05-06 00:34 43.35186 -72.28970 28818 ft 530 kts 63°
2026-05-06 00:34 43.38236 -72.19790 28811 ft 530 kts 63°
2026-05-06 00:35 43.41299 -72.10537 28806 ft 530 kts 63°
2026-05-06 00:35 43.44334 -72.01339 28796 ft 530 kts 64°
2026-05-06 00:36 43.47383 -71.92065 28804 ft 530 kts 64°
2026-05-06 00:36 43.50396 -71.82871 28803 ft 530 kts 64°
2026-05-06 00:37 43.53434 -71.73570 28808 ft 531 kts 64°
2026-05-06 00:37 43.56461 -71.64265 28829 ft 530 kts 64°
2026-05-06 00:38 43.59453 -71.55038 28823 ft 530 kts 64°
2026-05-06 00:38 43.62468 -71.45710 28838 ft 532 kts 64°
2026-05-06 00:39 43.65465 -71.36405 28833 ft 532 kts 64°
2026-05-06 00:39 43.68469 -71.27041 28826 ft 531 kts 64°
2026-05-06 00:40 43.71436 -71.17763 28815 ft 531 kts 64°
2026-05-06 00:40 43.74424 -71.08387 28800 ft 531 kts 64°
2026-05-06 00:41 43.77400 -70.99010 28810 ft 532 kts 64°
2026-05-06 00:41 43.80353 -70.89678 28806 ft 531 kts 64°
2026-05-06 00:42 43.83317 -70.80276 28812 ft 530 kts 64°
2026-05-06 00:42 43.86247 -70.70948 28813 ft 530 kts 64°
2026-05-06 00:43 43.89185 -70.61557 28804 ft 531 kts 64°
2026-05-06 00:43 43.92114 -70.52169 28815 ft 531 kts 64°
2026-05-06 00:44 43.95030 -70.42784 28816 ft 532 kts 64°
2026-05-06 00:44 43.97958 -70.33327 28811 ft 531 kts 65°
2026-05-06 00:45 44.00867 -70.23893 28816 ft 530 kts 65°
2026-05-06 00:45 44.03748 -70.14521 28815 ft 530 kts 65°
2026-05-06 00:46 44.06643 -70.05066 28813 ft 530 kts 65°
2026-05-06 00:46 44.09529 -69.95611 28850 ft 531 kts 65°
2026-05-06 00:47 44.12395 -69.86181 28833 ft 530 kts 65°
2026-05-06 00:47 44.15268 -69.76692 28820 ft 530 kts 65°
2026-05-06 00:48 44.18111 -69.67272 28819 ft 530 kts 65°
2026-05-06 00:48 44.20970 -69.57762 28819 ft 529 kts 65°
2026-05-06 00:49 44.23795 -69.48329 28824 ft 529 kts 66°
2026-05-06 00:49 44.26151 -69.40437 28818 ft 528 kts 66°
2026-05-06 00:50 44.28971 -69.30959 28835 ft 528 kts 66°
2026-05-06 00:50 44.31766 -69.21526 28833 ft 528 kts 66°
2026-05-06 00:51 44.34565 -69.12049 28834 ft 527 kts 66°
2026-05-06 00:51 44.37344 -69.02598 28836 ft 526 kts 66°
2026-05-06 00:52 44.40121 -68.93122 28827 ft 526 kts 66°
2026-05-06 00:52 44.42890 -68.83639 28837 ft 525 kts 67°
2026-05-06 00:53 44.45650 -68.74149 28848 ft 526 kts 67°